Location: Unspecified
(50.7693°N, 0.0000°E)
Time: 23:37:43
(UTC+00:00)

Vanguard 2 - Pass Details

Date: 18 June 2019
Orbit: 554 x 2938 km, 32.9° (Epoch: 13 October)

Event Time Altitude Azimuth Distance (km) Brightness Sun altitude
Rises 15:08:44 0° 262° (W) 5,305 12.6 44.8°
Reaches altitude 10° 15:13:32 10° 245° (WSW) 4,717 12.6 44.1°
Maximum altitude 15:21:36 18° 209° (SSW) 4,605 12.3 42.8°
Drops below altitude 10° 15:31:07 10° 174° (S) 5,656 12.1 41.4°
Sets 15:37:58 0° 159° (SSE) 6,779 12.3 40.3°
